GW0435 Weather Reports


time (UTC)temp
F
wind
direction
speed
knots
gust
knots
rain 1hr
in
rain 24hr
in
rain mn
in
humidity
%
barometer
mb
20260510230002 69 112 7.8 14.8 0.00 0.00 0.00 29 1005.4
20260510224502 69 157 5.2 16.5 0.00 0.00 0.00 30 1005.2
20260510223001 69 188 8.7 16.5 0.00 0.00 0.00 29 1004.9
20260510221501 71 182 7.8 18.2 0.00 0.00 0.00 26 1004.6
20260510220100 71 177 10.4 22.6 0.00 0.00 0.00 25 1004.7
20260510214603 71 166 6.1 13.9 0.00 0.00 0.00 23 1004.5
20260510213107 71 166 8.7 13.9 0.00 0.00 0.00 24 1004.6
20260510211603 71 166 5.2 13.9 0.00 0.00 0.00 24 1004.9
20260510204600 65 182 9.6 15.6 0.00 0.00 0.00 32 1004.9
20260510203057 64 241 1.7 7.0 0.00 0.00 0.00 33 1005.6
20260510201559 65 243 4.3 10.4 0.00 0.00 0.00 35 1005.9
20260510200054 67 244 2.6 11.3 0.00 0.00 0.00 23 1005.3
20260510194552 69 244 1.7 7.8 0.00 0.00 0.00 20 1005.1
20260510193056 70 244 5.2 16.5 0.00 0.00 0.00 20 1004.9
20260510191550 73 244 3.5 10.4 0.00 0.00 0.00 18 1004.8
20260510190048 72 247 5.2 14.8 0.00 0.00 0.00 20 1005.0
20260510184551 72 249 10.4 14.8 0.00 0.00 0.00 22 1005.0
20260510183042 70 250 3.5 10.4 0.00 0.00 0.00 21 1005.1
20260510181541 70 250 6.1 12.2 0.00 0.00 0.00 23 1005.0
20260510180043 69 250 2.6 13.0 0.00 0.00 0.00 24 1005.1
20260510174535 69 250 8.7 13.0 0.00 0.00 0.00 25 1005.2
20260510173036 68 250 4.3 9.6 0.00 0.00 0.00 26 1005.2
20260510171534 67 250 7.8 13.0 0.00 0.00 0.00 26 1005.3
20260510170023 67 250 4.3 12.2 0.00 0.00 0.00 27 1005.2
20260510164518 66 250 7.8 15.6 0.00 0.00 0.00 28 1005.1
20260510163015 67 275 5.2 12.2 0.00 0.00 0.00 28 1005.0
20260510161510 67 275 4.3 10.4 0.00 0.00 0.00 26 1005.0
20260510160008 66 275 1.7 13.0 0.00 0.00 0.00 27 1005.0
20260510154502 65 275 7.0 13.0 0.00 0.00 0.00 28 1005.0
20260510153058 65 275 6.1 15.6 0.00 0.00 0.00 28 1004.9
20260510151557 65 300 4.3 11.3 0.00 0.00 0.00 27 1004.7
20260510150048 64 307 7.0 11.3 0.00 0.00 0.00 28 1004.6
20260510144548 64 314 4.3 11.3 0.00 0.00 0.00 28 1004.6
20260510143043 63 317 2.6 7.8 0.00 0.00 0.00 29 1004.7
20260510141541 63 317 0.9 3.5 0.00 0.00 0.00 29 1004.5
20260510140032 61 317 1.7 4.3 0.00 0.00 0.00 28 1004.2
20260510134528 58 317 0.9 5.2 0.00 0.00 0.00 32 1004.1
20260510133025 56 317 1.7 4.3 0.00 0.00 0.00 36 1004.2
20260510131522 55 317 2.6 5.2 0.00 0.00 0.00 36 1004.0
20260510130036 55 317 2.6 5.2 0.00 0.00 0.00 35 1003.8
20260510124519 55 317 1.7 5.2 0.00 0.00 0.00 34 1003.4
20260510123013 55 317 1.7 3.5 0.00 0.00 0.00 34 1003.4
20260510121509 56 317 0.9 3.5 0.00 0.00 0.00 32 1003.4
20260510120023 57 317 3.5 5.2 0.00 0.00 0.00 31 1003.2
20260510114513 58 317 3.5 5.2 0.00 0.00 0.00 30 1003.2
20260510113004 58 317 3.5 7.8 0.00 0.00 0.00 29 1003.0
20260510111503 58 317 2.6 3.5 0.00 0.00 0.00 28 1002.8
20260510110003 58 317 1.7 7.0 0.00 0.00 0.00 27 1002.6
20260510104501 58 317 4.3 7.0 0.00 0.00 0.00 28 1002.4
20260510103059 57 317 3.5 7.8 0.00 0.00 0.00 30 1002.5
20260510101557 57 317 1.7 4.3 0.00 0.00 0.00 29 1002.3
20260510100100 57 317 1.7 2.6 0.00 0.00 0.00 28 1002.2
20260510094550 58 317 0.9 1.7 0.00 0.00 0.00 26 1002.0
20260510093053 59 317 0.0 0.9 0.00 0.00 0.00 26 1001.8
20260510091547 59 317 0.0 3.5 0.00 0.00 0.00 26 1001.6
20260510090047 59 317 1.7 5.2 0.00 0.00 0.00 26 1001.1
20260510084544 58 317 1.7 5.2 0.00 0.00 0.00 27 1001.0
20260510083056 58 317 1.7 5.2 0.00 0.00 0.00 27 1000.9
20260510081543 58 317 1.7 5.2 0.00 0.00 0.00 27 1000.8
20260510080040 59 317 2.6 5.2 0.00 0.00 0.00 26 1000.9
20260510074543 60 317 3.5 7.8 0.00 0.00 0.00 26 1000.9
20260510073040 59 317 4.3 7.0 0.00 0.00 0.00 26 1000.9
20260510071541 58 317 2.6 5.2 0.00 0.00 0.00 27 1000.9
20260510070037 59 317 2.6 7.0 0.00 0.00 0.00 26 1000.9
20260510064535 60 317 3.5 7.8 0.00 0.00 0.00 25 1000.8
20260510063033 61 317 4.3 7.8 0.00 0.00 0.00 24 1000.9
20260510061529 61 317 4.3 7.8 0.00 0.00 0.00 24 1000.8
20260510060031 61 317 4.3 8.7 0.00 0.00 0.00 23 1000.8
20260510054525 62 317 3.5 9.6 0.00 0.00 0.00 22 1000.6
20260510053026 63 317 5.2 10.4 0.00 0.00 0.00 21 1000.6
20260510051525 64 317 5.2 11.3 0.00 0.00 0.00 20 1000.6
20260510050023 64 317 7.0 10.4 0.00 0.00 0.00 19 1000.6
20260510044525 65 317 4.3 11.3 0.00 0.00 0.00 18 1000.6
20260510043023 65 317 5.2 9.6 0.00 0.00 0.00 18 1000.6
20260510041523 64 317 4.3 7.0 0.00 0.00 0.00 17 1000.6
20260510040022 65 317 2.6 6.1 0.00 0.00 0.00 16 1000.4
20260510034527 65 317 2.6 6.1 0.00 0.00 0.00 15 1000.3
20260510033024 66 317 4.3 8.7 0.00 0.00 0.00 14 1000.1
20260510031523 67 317 5.2 7.8 0.00 0.00 0.00 13 999.9
20260510030025 67 317 1.7 3.5 0.00 0.00 0.00 13 999.7
20260510024520 68 317 1.7 3.5 0.00 0.00 0.00 12 999.4
20260510023019 69 317 2.6 4.3 0.00 0.00 0.00 12 999.1
20260510021525 70 317 1.7 7.0 0.00 0.00 0.00 11 998.9
20260510020020 71 317 3.5 7.0 0.00 0.00 0.00 11 998.7
20260510014519 72 316 5.2 12.2 0.00 0.00 0.00 11 998.6
20260510013017 74 316 6.1 13.0 0.00 0.00 0.00 9 998.4
20260510011517 75 319 6.1 14.8 0.00 0.00 0.00 9 998.3
20260510010016 75 328 7.0 19.1 0.00 0.00 0.00 9 998.1
20260510004516 76 307 6.1 11.3 0.00 0.00 0.00 9 998.1
20260510003016 76 307 7.8 13.0 0.00 0.00 0.00 9 998.0
20260510001515 76 304 7.0 12.2 0.00 0.00 0.00 9 998.1
20260510000015 77 303 7.0 12.2 0.00 0.00 0.00 9 998.0
20260509234529 76 302 7.0 14.8 0.00 0.00 0.00 9 998.0
20260509233013 77 303 7.0 15.6 0.00 0.00 0.00 8 997.9
20260509231517 78 304 5.2 16.5 0.00 0.00 0.00 8 997.9